Seattle, WA
on Monday, December 3, 2012

Monday
Previous Day Next Day
Daily Summary
 ActualAverageRecord
Temperature
Mean Temperature °F 42°F  
Max Temperature 49°F 47°F 60°F (1965)
Min Temperature 45°F 36°F 27°F (1994)
Degree Days
Heating Degree Days 18 23  
Month to date heating degree days 50 69  
Since 1 July heating degree days 1077 1252  
Cooling Degree Days 0 0  
Month to date cooling degree days 0 0  
Year to date cooling degree days 177 189  
Moisture
Dew Point 42°F   
Average Humidity 85    
Maximum Humidity 93    
Minimum Humidity 77    
Precipitation
Precipitation 0.51 in 0.20 in 3.77 in (2007)
Month to date precipitation 1.44 0.60  
Year to date precipitation 42.85 32.74  
Snow
Snow 0.00 in in 1.10 in (1994)
Month to date snowfall 0.0  
Since 1 July snowfall 0.0  
Snow Depth 0.00 in   
Wind
Wind Speed 10 mph   
Max Wind Speed 21 mph   
Max Gust Speed 33 mph   
Visibility 9 miles   
Events Rain   

Key: T is trace of precipitation, MM is missing value
Source: NWS Daily Summary
Time(PST)TemperatureDew PointHumidity Pressure Visibility Wind DirectionWind SpeedGust SpeedPrecipitationEvents Conditions
12:40 AM 46.4°F 42.8°F 87% 29.80 in 6.0 miles South 12.7 mph - 0.01 in Rain Light Rain
12:53 AM 46.0°F 42.1°F 86% 29.82 in 7.0 miles South 10.4 mph - 0.01 in Rain Light Rain
1:00 AM 46.4°F 42.8°F 87% 29.80 in 10.0 miles South 9.2 mph - 0.00 in Rain Light Rain
1:45 AM 46.4°F 42.8°F 87% 29.81 in 10.0 miles South 11.5 mph - 0.02 in Rain Light Rain
1:53 AM 46.9°F 42.1°F 83% 29.83 in 7.0 miles South 12.7 mph 20.7 mph 0.02 in Rain Light Rain
2:53 AM 46.9°F 42.1°F 83% 29.86 in 10.0 miles South 15.0 mph 23.0 mph 0.00 in   Overcast
3:53 AM 48.0°F 41.0°F 77% 29.88 in 10.0 miles South 15.0 mph 27.6 mph N/A   Overcast
4:53 AM 46.0°F 42.1°F 86% 29.90 in 5.0 miles SSW 5.8 mph - 0.09 in Rain Rain
5:42 AM 46.4°F 41.0°F 81% 29.89 in 6.0 miles SW 17.3 mph 24.2 mph 0.20 in Rain Light Rain
5:53 AM 45.0°F 41.0°F 86% 29.92 in 7.0 miles SW 13.8 mph - 0.22 in Rain Light Rain
6:18 AM 44.6°F 41.0°F 87% 29.90 in 10.0 miles SSW 12.7 mph 21.9 mph 0.03 in Rain Light Rain
6:53 AM 44.6°F 41.0°F 87% 29.90 in 10.0 miles South 15.0 mph - N/A   Overcast
7:40 AM 46.4°F 41.0°F 81% 29.93 in 10.0 miles South 12.7 mph - N/A   Overcast
7:53 AM 46.0°F 41.0°F 83% 29.96 in 7.0 miles South 15.0 mph - 0.00 in Rain Light Rain
8:53 AM 46.0°F 41.0°F 83% 29.98 in 10.0 miles South 12.7 mph - 0.00 in   Mostly Cloudy
9:15 AM 46.4°F 42.8°F 87% 29.97 in 10.0 miles South 11.5 mph - N/A   Overcast
9:35 AM 46.4°F 42.8°F 87% 29.97 in 10.0 miles South 11.5 mph - N/A   Overcast
9:53 AM 46.0°F 42.1°F 86% 30.00 in 10.0 miles South 11.5 mph - N/A   Overcast
10:53 AM 48.0°F 43.0°F 83% 30.03 in 10.0 miles SSE 9.2 mph - N/A   Mostly Cloudy
11:53 AM 46.9°F 43.0°F 86% 30.03 in 10.0 miles SE 10.4 mph - N/A   Overcast
12:38 PM 48.2°F 44.6°F 87% 30.00 in 8.0 miles SE 8.1 mph - 0.00 in Rain Light Rain
12:53 PM 48.0°F 44.1°F 86% 30.02 in 9.0 miles SE 6.9 mph - 0.00 in Rain Light Rain
1:53 PM 46.9°F 44.1°F 90% 29.99 in 4.0 miles ESE 5.8 mph - 0.03 in Rain Light Rain
2:17 PM 48.2°F 44.6°F 87% 29.96 in 8.0 miles ESE 9.2 mph - 0.01 in Rain Light Rain
2:53 PM 46.9°F 44.1°F 90% 29.98 in 9.0 miles ESE 12.7 mph - 0.01 in Rain Light Rain
3:35 PM 46.4°F 42.8°F 87% 29.95 in 10.0 miles ESE 10.4 mph - 0.02 in Rain Light Rain
3:53 PM 46.9°F 44.1°F 90% 29.97 in 5.0 miles SSE 9.2 mph - 0.04 in Rain Light Rain
4:53 PM 46.9°F 44.1°F 90% 29.94 in 10.0 miles Variable 6.9 mph - 0.02 in Rain Light Rain
5:53 PM 46.9°F 43.0°F 86% 29.93 in 10.0 miles ESE 11.5 mph - 0.02 in   Overcast
6:53 PM 48.0°F 43.0°F 83% 29.90 in 10.0 miles ESE 10.4 mph - 0.00 in   Overcast
7:53 PM 48.0°F 43.0°F 83% 29.88 in 10.0 miles SE 6.9 mph - 0.01 in Rain Light Rain
8:53 PM 46.9°F 43.0°F 86% 29.83 in 10.0 miles East 5.8 mph - 0.01 in Rain Light Rain
9:53 PM 48.0°F 41.0°F 77% 29.77 in 10.0 miles East 5.8 mph - 0.00 in   Overcast
10:53 PM 48.9°F 41.0°F 74% 29.71 in 10.0 miles ESE 9.2 mph - 0.00 in Rain Light Rain
11:53 PM 48.0°F 41.0°F 77% 29.67 in 10.0 miles Calm Calm - 0.00 in Rain Light Rain
Moon Phase
Dec. 03 Dec. 06 Dec. 13 Dec. 20 Dec. 28
Sunrise:07:39 AM (PST) Moon Rise:09:23 PM (PST)12/3
Sunset:04:19 PM (PST) Moon Set:10:54 AM (PST)12/3

Copyright © 2014 The Weather Underground, Inc.